This is the latest recevied weather packets stored in our database for station/object W9WRP. If no packets are shown the sender has not sent any weather packets the latest 10 day(s).
| Time | Temp. | Humidity | Pressure | Rain* | Wind** | Luminosity | Snow |
|---|---|---|---|---|---|---|---|
| 1787934121 | 37.22° C | 27% | 1016.7 hPa | 0 mm | - | 99 W/m² | - |
| 1787933819 | 36.67° C | 28% | 1016.5 hPa | 0 mm | - | 131 W/m² | - |
| 1787933515 | 37.22° C | 28% | 1016.8 hPa | 0 mm | - | 135 W/m² | - |
| 1787933209 | 37.22° C | 28% | 1016.8 hPa | 0 mm | - | 208 W/m² | - |
| 1787932904 | 37.22° C | 27% | 1016.7 hPa | 0 mm | - | 121 W/m² | - |
| 1787932603 | 37.22° C | 28% | 1016.5 hPa | 0 mm | - | 240 W/m² | - |
| 1787932303 | 36.67° C | 28% | 1016.5 hPa | 0 mm | - | 81 W/m² | - |
| 1787931992 | 36.11° C | 28% | 1016.6 hPa | 0 mm | - | 82 W/m² | - |
| 1787931691 | 36.67° C | 28% | 1016.5 hPa | 0 mm | - | 108 W/m² | - |
| 1787931386 | 36.67° C | 27% | 1016.4 hPa | 0 mm | - | 227 W/m² | - |
| 1787931081 | 36.67° C | 27% | 1016.3 hPa | 0 mm | - | 170 W/m² | - |
| 1787930780 | 36.11° C | 27% | 1016.5 hPa | 0 mm | - | 151 W/m² | - |
| 1787930474 | 35.56° C | 28% | 1016.3 hPa | 0 mm | - | 63 W/m² | - |
| 1787930170 | 35.56° C | 28% | 1016.4 hPa | 0 mm | - | 76 W/m² | - |
| 1787929868 | 35.56° C | 27% | 1016.3 hPa | 0 mm | - | 60 W/m² | - |
| 1787929563 | 35.56° C | 28% | 1016.3 hPa | 0 mm | - | 56 W/m² | - |
| 1787929262 | 35.56° C | 28% | 1016.5 hPa | 0 mm | - | 54 W/m² | - |
| 1787928960 | 35.56° C | 27% | 1016.4 hPa | 0 mm | - | 52 W/m² | - |
| 1787928655 | 35° C | 28% | 1016.4 hPa | 0 mm | - | 46 W/m² | - |
| 1787928354 | 35° C | 29% | 1016.4 hPa | 0 mm | - | 49 W/m² | - |
| 1787928053 | 34.44° C | 28% | 1016.6 hPa | 0 mm | - | 45 W/m² | - |
| 1787927747 | 34.44° C | 28% | 1016.5 hPa | 0 mm | - | 49 W/m² | - |
| 1787927442 | 34.44° C | 27% | 1016.5 hPa | 0 mm | - | 53 W/m² | - |
| 1787927137 | 33.89° C | 28% | 1016.4 hPa | 0 mm | - | 45 W/m² | - |
| 1787926832 | 33.33° C | 28% | 1016.2 hPa | 0 mm | - | 47 W/m² | - |
* Rain latest hour (hover to see other rain measurements)
** Current wind speed in m/s (hover to see current wind gust speed)